Hourly Weather Roundup
Issued by NWS Central Illinois

Home | Current Version | Previous Version | Text Only | Print | Product List | Glossary On
Versions: 1 2 3 4 5 6 7 8 9 10 11 12 13 14 15 16 17 18 19 20 21 22 23 24 25 26 27 28 29 30 31 32 33 34 35 36 37 38 39 40 41 42 43 44 45 46 47 48 49 50
000
NZUS43 KILX 030510
HWRILX

AREA WEATHER ROUNDUP
NATIONAL WEATHER SERVICE, LINCOLN IL
1200 AM CDT WED SEP 03 2014


CITY           SKY/WX    TMP DP  RH WIND       PRES   REMARKS
BLOOMINGTON    CLEAR     65  61  87 SW5       30.02R
CHAMPAIGN      CLEAR     68  66  93 SW7       30.02R
DECATUR        PTCLDY    69  66  90 SW7       30.02R
FLORA          CLEAR     65  65  99 CALM      30.02F
GALESBURG      CLEAR     60  59  94 CALM      30.00R
JACKSONVILLE   CLEAR     70  67  90 SW6       30.02S
LACON          PTCLDY    65  63  91 CALM      29.99R
LAWRENCEVILLE  MOCLDY    65  64  97 CALM      30.02S FOG
LITCHFIELD     CLEAR     65  64  99 MISG      30.03S
$$


CITY           SKY/WX    TMP DP  RH WIND       PRES   REMARKS
LINCOLN        PTCLDY    70  66  87 CALM      29.98S
MACOMB         CLEAR     60  60  98 CALM      30.02S
MATTOON        CLEAR     70  67  90 SW7       30.01S
MT CARMEL AP   FOG       66  64  94 CALM      30.02S VSB 1/4
OLNEY-NOBLE AP CLEAR     63  63 100 CALM      30.02F
PARIS          CLEAR     67  67  97 SW3       30.02S
PEORIA         PTCLDY    69  64  84 CALM      30.00R
PONTIAC        PTCLDY    64  64 100 CALM      30.00R
RANTOUL        CLEAR     67  64  88 SW5       30.02R
ROBINSON       FOG       65  64  99 W3        30.03S VSB 3/4
SPRINGFIELD    PTCLDY    69  65  86 SW3       30.01R
TAYLORVILLE    MOCLDY    66  64  94 SW5       30.02S
$$

...REGIONAL REPORTS...


CITY           SKY/WX    TMP DP  RH WIND       PRES   REMARKS
CHICAGO O`HARE PTCLDY    69  59  70 SW5       29.97R
KANKAKEE       CLEAR     63  62  97 SW5       30.00R
MOLINE         CLEAR     62  60  93 CALM      29.99R
MOUNT VERNON   PTCLDY    64  63  94 CALM      30.03S
PITTSFIELD     CLEAR     71  67  88 SW3       30.03S
QUINCY         CLEAR     69  65  86 S5        30.01R
ROCKFORD       CLEAR     62  59  90 S3        29.99R
$$


CITY           SKY/WX    TMP DP  RH WIND       PRES   REMARKS
BURLINGTON     CLEAR     64  62  93 CALM      29.99S
CEDAR RAPIDS   CLEAR     58  58 100 S3        29.97S
DES MOINES     CLEAR     67  61  81 S3        29.96S
KIRKSVILLE     CLEAR     64  62  93 SE3       30.01S
OTTUMWA        CLEAR     62  59  90 S5        29.98S
ST LOUIS       PTCLDY    72  67  84 CALM      30.04R
$$


CITY           SKY/WX    TMP DP  RH WIND       PRES   REMARKS
TERRE HAUTE    PTCLDY    64  63  96 CALM      30.02R FOG
EVANSVILLE     PTCLDY    71  68  90 CALM      30.01S
INDIANAPOLIS   PTCLDY    67  65  93 W6        30.01S
LAFAYETTE      FOG       65  65 100 CALM      30.00S VSB 3/4
MADISON        CLEAR     60  57  89 CALM      29.96R
MILWAUKEE      CLEAR     66  58  75 CALM      29.95R
$$





USA.gov is the U.S. government's official web portal to all federal, state and local government web resources and services.